www.pogodaiklimat.ru

Погода и климат >> Архив погоды >> Сенегал >> Dakar


АРХИВ ПОГОДЫ в Dakar

Время (UTC), дата Ветер
(напр.,м/с)
 
Видим.   Явления Облачность Т
(С)
Тd
(С)
f
(%)
Тe
(С)
Тes
(С)
Комфортность P
(гПа)
Po
(гПа)
Тmin
(С)
Tmax
(С)
R
(мм)
R24
(мм)
S
(см)
15 11.09 СЗ 3 10 км 6/4 400 м
[Cu med, cong Ci sp]
+28.6 +24.0 76 +40 +47 очень
душно
1010.6 1007.4
18 11.09 З 2 10 км 8/3 400 м
[Sc diur, vesp Ac trans Ci sp]
+27.7 +22.9 75 +37 +38 очень
душно
1009.8 1006.6 +28.2
21 11.09 СЗ 3 8000 м 6/4 400 м
[Sc Ac trans]
+26.4 +24.3 88 +37 +37 очень
душно
1010.9 1007.7
00 12.09 СЗ 1 8000 м 5/3 400 м
[Sc Ci sp]
+26.1 +23.6 86 +35 +35 очень
душно
1011.8 1008.6
03 12.09 штиль 0 8000 м 5/3 400 м
[Sc Ci sp]
+25.9 +23.7 88 +35 +35 очень
душно
1011.0 1007.7
06 12.09 штиль 0 8000 м 6/4 400 м
[Sc Ci sp]
+25.6 +24.0 91 +35 +35 очень
душно
1011.0 1007.7 +25.6
09 12.09 10 км 8/1 400 м
[Sc Ac trans Ci sp]
+23.1 +24.1 100 1011.2 1007.9
12 12.09 С 1 10 км 8/4 400 м
[Sc Ac und Ci sp]
+28.6 +22.9 71 +38 +47 очень
душно
1012.5 1009.2
15 12.09 С 2 10 км 8/4 400 м
[Sc Ac As Ci sp]
+29.4 +23.8 72 +40 +47 очень
душно
1011.0 1007.8
18 12.09 С 1 10 км 8/0
[Ac trans Ci sp]
+28.0 +23.7 77 +38 +39 очень
душно
1009.8 1006.6 +28.7
21 12.09 штиль 0 8000 м 6/6 400 м
[Sc Ci sp]
+26.8 +24.1 85 +37 +37 очень
душно
1011.5 1008.2
00 13.09 штиль 0 8000 м 3/1 400 м
[Sc Ci sp]
+25.5 +24.4 94 +36 +36 очень
душно
1012.8 1009.5
03 13.09 ЮЗ 4 8000 м 5/3 400 м
[Sc Ac trans]
+25.6 +24.3 93 +36 +36 очень
душно
1011.5 1008.2
06 13.09 штиль 0 8000 м 5/3 400 м
[Sc Ac trans]
+25.2 +23.9 93 +35 +35 очень
душно
1011.5 1008.2 +25.2
09 13.09 ЮЗ 1 10 км 5/5 400 м
[Cu Sc Ci sp]
+26.4 +23.7 85 +36 +39 очень
душно
1012.3 1009.0
12 13.09 СВ 2 10 км 5/5 400 м
[Cu Sc Cs]
+30.2 +23.8 69 +42 +52 опасность
перегрева
1012.7 1009.4
15 13.09 Ю 4 10 км 5/5 400 м
[Cu Sc]
+29.0 +23.7 73 +40 +45 очень
душно
1011.3 1008.1
18 13.09 ЮЗ 2 10 км 8/5 400 м
[Cu Sc Ac trans Ci sp]
+28.5 +23.5 74 +39 +39 очень
душно
1010.4 1007.2 +30.9
21 13.09 штиль 0 8000 м 3/3 400 м
[Sc]
+27.1 +23.3 80 +37 +37 очень
душно
1011.6 1008.3
00 14.09 С 1 8000 м 1/1 400 м
[Sc]
+26.6 +23.7 84 +36 +36 очень
душно
1012.5 1009.3
03 14.09 штиль 0 8000 м 1/1 400 м
[Sc]
+25.7 +24.0 90 +35 +35 очень
душно
1011.7 1008.5
06 14.09 штиль 0 8000 м 1/0
[Ac trans]
+25.0 +23.3 90 +33 +33 очень
душно
1011.7 1008.5 +24.7
09 14.09 штиль 0 10 км 1/0
[Ac trans]
+27.3 +23.6 80 +37 +43 очень
душно
1013.0 1009.8
12 14.09 штиль 0 10 км 1/1 400 м
[Sc]
+29.5 +23.5 70 +40 +63 опасность
солнечного
удара
1013.8 1010.5
15 14.09 штиль 0 10 км слабый ливневой дождь, в посл. час гроза 9/5 400 м
[Cb cap Ac As]
+25.0 +21.5 81 +32 +37 очень
душно
1012.4 1009.1
18 14.09 С 1 10 км {гроза, дождь} 9/5 400 м
[Sc Ac As]
+26.0 +22.0 79 +34 +34 очень
душно
1011.7 1008.4 +30.5 2
21 14.09 штиль 0 8000 м 5/4 400 м
[Sc Ac trans]
+25.6 +23.0 86 +34 +34 очень
душно
1012.2 1008.9
00 15.09 штиль 0 8000 м ясно +25.3 +23.9 92 +35 +35 очень
душно
1012.9 1009.6
03 15.09 штиль 0 7000 м ясно +25.3 +24.0 93 +35 +35 очень
душно
1011.7 1008.4
06 15.09 штиль 0 8000 м 4/4 400 м
[Sc]
+24.9 +24.2 96 +34 +34 очень
душно
1012.3 1009.0 +24.4 2
09 15.09 С 1 10 км 8/4 450 м
[Cu med, cong Ci sp]
+27.5 +24.7 85 +39 +42 очень
душно
1013.3 1010.0
12 15.09 СЗ 1 10 км 6/0
[Ci sp]
+30.5 +23.5 66 +41 +61 опасность
перегрева
1013.6 1010.4
15 15.09 ЮЗ 3 10 км 8/0
[Ci sp]
+30.9 +23.0 63 +41 +52 опасность
перегрева
1011.7 1008.5
18 15.09 З 2 10 км 8/3 400 м
[Sc Ci sp]
+29.1 +24.9 78 +42 +43 опасность
перегрева
1011.6 1008.4 +31.1
21 15.09 штиль 0 8000 м 3/1 400 м
[Sc Ci sp]
+27.9 +25.1 85 +40 +40 очень
душно
1012.8 1009.5
00 16.09 штиль 0 8000 м 6/4 400 м
[Sc Ac trans]
+27.8 +25.8 89 +41 +41 опасность
перегрева
1014.4 1011.2
03 16.09 штиль 0 8000 м 5/1 400 м
[Sc Ac trans]
+24.7 +25.6 100 +35 +35 очень
душно
1012.8 1009.5
06 16.09 З 1 8000 м ясно +27.1 +25.7 92 +40 +40 очень
душно
1012.0 1008.8 +26.9
09 16.09 ЮЗ 3 10 км ясно +27.9 +23.2 76 +38 +42 очень
душно
1012.4 1009.2
12 16.09 СЗ 2 9000 м 1/1 400 м
[Sc]
+29.6 +26.6 84 +46 +63 опасность
перегрева
1012.7 1009.5
15 16.09 С 2 6000 м пыль 10/0
[Cs]
+30.4 +26.2 78 +46 +60 опасность
перегрева
1011.4 1008.2
18 16.09 С 2 2500 м пыль 10/0
[Cs]
+30.6 +25.3 73 +44 +46 опасность
перегрева
1010.7 1007.5 +31.3
21 16.09 С 1 8000 м ясно +28.5 +25.8 85 +42 +42 опасность
перегрева
1011.9 1008.7
00 17.09 СЗ 2 8000 м 5/5 400 м
[Sc]
+28.0 +26.6 92 +43 +43 опасность
перегрева
1012.2 1009.0
03 17.09 З 1 8000 м 5/5 400 м
[Sc]
+27.8 +27.0 95 +44 +44 опасность
перегрева
1011.3 1008.1
06 17.09 СЗ 1 8000 м ясно +27.4 +25.6 90 +40 +40 очень
душно
1011.1 1007.9 +27.4
09 18.09 штиль 0 10 км 8/8 400 м
[Cb calv]
+27.8 +23.5 77 +38 +39 очень
душно
1011.8 1008.5
12 18.09 СВ 5 8000 м слабый дождь 10/5 400 м
[Sc Ac As]
+27.4 +22.8 76 +36 +38 очень
душно
1013.9 1010.6 1

 

Местоположение метеостанции Dakar (Сенегал): широта 14.73 долгота -17.50 высота над уровнем моря 24 м.

В архиве по умолчанию представлена погода в Dakar за последнюю неделю. Архивные данные за месяц целиком и за предыдущие месяцы, начиная с января 2011 года, Вы можете получить, выбрав интересующий диапазон дат из раскрывающегося списка и нажав кнопку "Ввод!".


*Определитесь, кто Вы:
робот инопланетянин человек

Внимание! Время в таблицах - всемирное. Для получения местного времени необходимо прибавить поправку, которая в Dakar равна 0 ч.

Смотрите также архив погоды в соседних городах и на ближайших метеорологических станциях:

Погода в Diourbel (Сенегал) (137 км)
Погода в Kaolack (Сенегал) (169 км)
Погода в Banjil Int Airport (Гамбия) (180 км)
Погода в Banjul Half-Die (Гамбия) (182 км)
Погода в Saint-Louis (Сенегал) (185 км)
Погода в Kerewan (Гамбия) (205 км)
Погода в Sapu (Гамбия) (213 км)
Погода в Sibanor (Гамбия) (219 км)
Погода в Jenoi (Гамбия) (250 км)
Погода в Kauur (Гамбия) (261 км)

Пояснения к столбцам:

Ветер - указаны скорость ветра в м/с - средняя за 10 мин, порывы в срок и между сроками (в фигурных скобках) и направление, откуда дует ветер: С - северный, СВ - северо-восточный, В - восточный, ЮВ - юго-восточный, Ю - южный, ЮЗ - юго-западный, З - западный, СЗ - северо-западный.
Видимость - горизонтальная дальность видимости в метрах или километрах. При видимости от 1 до 10 км при отсутствии осадков обычно наблюдается дымка, при ухудшении видимости до 1 км и менее - туман. В сухую погоду видимость может ухудшаться дымом, пылью или мглою.
Явления - указаны атмосферные явления, наблюдавшиеся в срок или в последний час перед сроком; фигурными скобками обозначены явления, наблюдавшиеся между сроками (за 1-3 часа до срока); квадратными скобками обозначены град или гололедные отложения с указанием их диаметра в мм.
Облачность - указаны через наклонную черту общая и нижняя облачность в баллах и высота нижней границы облаков в метрах; квадратными скобками обозначены формы облаков: Ci - перистые, Cs - перисто-слоистые, Cc - перисто-кучевые, Ac - высококучевые, As - высокослоистые, Sc - слоисто-кучевые, Ns - слоисто-дождевые, Cu - кучевые, Cb - кучево-дождевые. Подробнее классификацию облаков см. в Атласе облаков (PDF).
T - Температура воздуха - температура, измеренная на высоте 2 м над землей.
Td - Температура точки росы - температура, при понижении до которой содержащийся в воздухе водяной пар достигнет насыщения.
f - Относительная влажность воздуха - влажноcть воздуха, измеренная на высоте 2 м над землей.
Te - Эффективная температура - температура, которую ощущает одетый по сезону человек в тени. Характеристика душности погоды. При расчете учитывается влияние влажности воздуха и скорости ветра на теплоощущения человека.
Tes - Эффективная температура на солнце - температура, которую ощущает человек, с поправкой на солнечный нагрев. Характеристика знойности погоды. Зависит от высоты солнца над горизонтом, облачности и скорости ветра. Ночью, в пасмурную погоду, а также при ветре 12 м/с и более поправка равна нулю.
P - Атмосферное давление - приведенное к уровню моря атмосферное давление.
Po - Атмосферное давление - измеренное на уровне метеостанции атмосферное давление.
Tmin - Минимальная температура - минимум температуры воздуха на высоте 2 м над землей.
Tmax - Максимальная температура - максимум температуры воздуха на высоте 2 м над землей.
R - Количество осадков - Количество выпавших осадков за период времени, мм. При наведении курсора мыши на число - период времени, за который выпало указанное количество осадков.
R24 - Количество осадков - Количество выпавших осадков за 24 часа, мм.
S - Снежный покров - Высота снежного покрова, см. При наведении курсора мыши на число - состояние снежного покрова и степень покрытия местности в баллах.